Naples, FL

1:46 AM EDT on August 21, 2017 (GMT -0400)
Naples Municipal

Weather History for KAPF - September, 2012

Change the Weather History Date:

Sunday, September 30, 2012

  Actual Average Record
Temperature  
Mean Temperature 83 °F 81 °F  
Max Temperature 90 °F 89 °F 95 °F (1988)
Min Temperature 75 °F 73 °F 67 °F (1983)
Degree Days  
Heating Degree Days 0 0  
Month to date heating degree days 0 0  
Since 1 July heating degree days 0 0  
Cooling Degree Days 18 16  
Month to date cooling degree days 526 520  
Year to date cooling degree days 3421 3177  
Growing Degree Days 32 (Base 50)    
Moisture  
Dew Point 73 °F    
Average Humidity 75    
Maximum Humidity 94    
Minimum Humidity 55    
Precipitation  
Precipitation 0.03 in 0.23 in 2.70 in (1951)
Month to date precipitation 3.78 7.69  
Year to date precipitation 32.83 44.21  
Snow  
Snow 0.00 in - - ()
Month to date snowfall 0.0  
Since 1 July snowfall 0.0  
Since 1 September snowfall 0.0  
Snow Depth 0.00 in    
Sea Level Pressure  
Sea Level Pressure 29.84 in    
Wind  
Wind Speed 4 mph (SE)    
Max Wind Speed 16 mph    
Max Gust Speed 21 mph    
Visibility 10 miles    
Events      
T = Trace of Precipitation, MM = Missing Value Source: NWS Daily Summary

Daily Weather History Graph

Daily Weather History Graph

Search for Another Location

Airport or City:

Trip Planner

Search our weather history database for the weather conditions in past years. The results will help you decide how hot, cold, wet, or windy it might be!

Date:

Astronomy

Sep. 30, 2012 Rise Set
Actual Time 7:19 AM EDT 7:14 PM EDT
Civil Twilight 6:56 AM EDT 7:37 PM EDT
Nautical Twilight 6:29 AM EDT 8:03 PM EDT
Astronomical Twilight 6:02 AM EDT 8:30 PM EDT
Moon 7:27 PM EDT (9/30) 7:40 AM EDT (9/30)
Length of Visible Light 12h 40m
Length of Day
11h 54m
Full, 100% of the Moon is Illuminated
Sep 30
Full
Oct 8
Last Quarter
Oct 15
New
Oct 21
First Quarter
Oct 29
Full

Hourly Weather History & Observations

Time (EDT) Temp. Heat Index Dew Point Humidity Pressure Visibility Wind Dir Wind Speed Gust Speed Precip Events Conditions
12:53 AM 78.1 °F - 72.0 °F 81% 29.90 in 10.0 mi Calm Calm - N/A   Clear
1:53 AM 77.0 °F - 73.0 °F 88% 29.89 in 10.0 mi SE 4.6 mph - N/A   Partly Cloudy
2:53 AM 77.0 °F - 73.0 °F 88% 29.87 in 10.0 mi East 4.6 mph - N/A   Clear
3:53 AM 75.9 °F - 73.0 °F 91% 29.86 in 10.0 mi Calm Calm - N/A   Clear
4:53 AM 75.0 °F - 73.0 °F 94% 29.85 in 10.0 mi SE 3.5 mph - N/A   Clear
5:53 AM 75.9 °F - 73.0 °F 91% 29.85 in 10.0 mi Calm Calm - N/A   Clear
6:53 AM 75.0 °F - 73.0 °F 94% 29.86 in 10.0 mi Calm Calm - N/A   Clear
7:53 AM 75.9 °F - 73.0 °F 91% 29.87 in 10.0 mi ESE 3.5 mph - N/A   Partly Cloudy
8:53 AM 80.1 °F 84.5 °F 73.9 °F 81% 29.87 in 10.0 mi ESE 3.5 mph - N/A   Partly Cloudy
11:53 AM 88.0 °F 94.7 °F 72.0 °F 59% 29.88 in 10.0 mi South 5.8 mph - N/A   Scattered Clouds
12:53 PM 88.0 °F 92.9 °F 70.0 °F 55% 29.86 in 10.0 mi Variable 6.9 mph - N/A   Scattered Clouds
1:53 PM 89.1 °F 98.0 °F 73.9 °F 61% 29.84 in 10.0 mi SSW 12.7 mph - N/A   Mostly Cloudy
2:53 PM 88.0 °F 97.5 °F 75.0 °F 65% 29.81 in 10.0 mi SSW 15.0 mph - N/A   Scattered Clouds
3:53 PM 87.1 °F 97.3 °F 75.9 °F 69% 29.79 in 10.0 mi WSW 12.7 mph - N/A   Mostly Cloudy
4:53 PM 82.9 °F 86.5 °F 69.1 °F 63% 29.80 in 10.0 mi North 8.1 mph 17.3 mph N/A   Overcast
5:53 PM 78.1 °F - 72.0 °F 81% 29.79 in 10.0 mi Calm Calm - 0.03 in   Mostly Cloudy
6:53 PM 80.1 °F 84.5 °F 73.9 °F 81% 29.80 in 10.0 mi Calm Calm - N/A   Partly Cloudy
7:53 PM 78.1 °F - 73.9 °F 87% 29.80 in 10.0 mi Calm Calm - N/A   Clear
8:53 PM 78.1 °F - 73.9 °F 87% 29.81 in 10.0 mi Calm Calm - N/A   Clear
9:53 PM 78.1 °F - 73.9 °F 87% 29.83 in 10.0 mi Calm Calm - N/A   Clear
10:53 PM 78.1 °F - 75.0 °F 90% 29.84 in 10.0 mi Calm Calm - N/A   Partly Cloudy
11:23 PM 78.8 °F - 75.2 °F 89% 29.85 in 10.0 mi Calm Calm - N/A   Overcast
11:37 PM 78.8 °F - 75.2 °F 89% 29.84 in 10.0 mi East 3.5 mph - N/A   Mostly Cloudy
11:53 PM 77.0 °F - 75.0 °F 94% 29.84 in 10.0 mi NNE 3.5 mph - N/A   Mostly Cloudy